Date String (YYYY-MM-DD hh:mm:ss) UTC,Instrument flags,Ambient pressure (hPa),Sample flow (lpm),Bypass flow (lpm),Sample temperature (°C),Ambient temperature (°C),ASC tube jacket temperature (°C),LED temperature (°C),Box temperature (°C),Sample RH (%),Span deviation,Mass concentration (μg/m³),Mass concentration (μg/m³),Mass concentration (μg/m³)
DateTimeUTC,F1_M11,P_M11,Q1_M11,Q2_M11,T1_M11,T2_M11,T3_M11,T4_M11,T5_M11,U1_M11,ZSPAN_M11,X0_M11,X2_M11,X1_M11
2022-10-23 16:00:00,,0804.1,5.00,0.00,30.5,29.2,00.0,39.3,32.3,10.4,0000.0,0009.13,0003.32,0002.01
2022-10-23 16:01:00,,0804.2,5.00,0.00,30.5,29.2,00.0,39.3,32.3,10.3,0000.0,0007.75,0003.32,0002.02
2022-10-23 16:02:00,,0804.2,5.01,0.00,30.5,29.2,00.0,39.3,32.3,10.3,0000.0,0007.62,0003.32,0002.01
2022-10-23 16:03:00,,0804.2,4.99,0.00,30.5,29.2,00.0,39.3,32.4,10.3,0000.0,0007.63,0003.30,0002.01
2022-10-23 16:04:00,,0804.2,5.01,0.00,30.5,29.2,00.0,39.3,32.4,10.4,0000.0,0007.91,0003.28,0002.01
2022-10-23 16:05:00,,0804.2,5.00,0.00,30.6,29.3,00.0,39.3,32.4,10.4,0000.0,0008.40,0003.26,0002.01
2022-10-23 16:06:00,,0804.2,4.99,0.00,30.6,29.3,00.0,39.4,32.4,10.5,0000.0,0008.01,0003.21,0001.99
2022-10-23 16:07:00,,0804.2,5.00,0.00,30.6,29.3,00.0,39.4,32.4,10.4,0000.0,0008.03,0003.22,0001.97
2022-10-23 16:08:00,,0804.3,5.01,0.00,30.6,29.3,00.0,39.4,32.4,10.5,0000.0,0008.13,0003.20,0001.95
2022-10-23 16:09:00,,0804.2,5.00,0.00,30.6,29.3,00.0,39.4,32.4,10.5,0000.0,0009.44,0003.17,0001.95
2022-10-23 16:10:00,,0804.2,4.99,0.00,30.6,29.3,00.0,39.4,32.4,10.6,0000.0,0009.87,0003.11,0001.93
2022-10-23 16:11:00,,0804.3,5.00,0.00,30.6,29.4,00.0,39.4,32.5,10.6,0000.0,0009.98,0003.04,0001.91
2022-10-23 16:12:00,,0804.2,5.01,0.00,30.7,29.4,00.0,39.4,32.4,10.6,0000.0,0010.13,0003.02,0001.90
2022-10-23 16:13:00,,0804.2,4.99,0.00,30.7,29.4,00.0,39.5,32.5,10.6,0000.0,0010.02,0002.98,0001.89
2022-10-23 16:14:00,,0804.2,4.99,0.00,30.7,29.4,00.0,39.5,32.5,10.6,0000.0,0010.03,0003.01,0001.87
2022-10-23 16:15:00,,0804.3,4.99,0.00,30.7,29.4,00.0,39.5,32.5,10.7,0000.0,0010.62,0003.06,0001.87
2022-10-23 16:16:00,,0804.2,5.02,0.00,30.7,29.4,00.0,39.5,32.5,10.6,0000.0,0010.72,0003.14,0001.88
2022-10-23 16:17:00,,0804.2,4.99,0.00,30.7,29.5,00.0,39.5,32.5,10.5,0000.0,0010.90,0003.16,0001.91
2022-10-23 16:18:00,,0804.3,4.99,0.00,30.8,29.5,00.0,39.5,32.6,10.5,0000.0,0010.96,0003.16,0001.94
2022-10-23 16:19:00,,0804.2,5.00,0.00,30.8,29.5,00.0,39.6,32.6,10.7,0000.0,0011.44,0003.22,0002.02
2022-10-23 16:20:00,,0804.2,5.02,0.00,30.8,29.5,00.0,39.6,32.6,10.7,0000.0,0010.95,0003.24,0002.10
2022-10-23 16:21:00,,0804.2,4.99,0.00,30.8,29.5,00.0,39.6,32.6,10.7,0000.0,0011.18,0003.31,0002.18
2022-10-23 16:22:00,,0804.2,5.00,0.00,30.8,29.5,00.0,39.6,32.6,10.8,0000.0,0011.23,0003.40,0002.26
2022-10-23 16:23:00,,0804.3,5.01,0.00,30.8,29.5,00.0,39.6,32.6,10.8,0000.0,0011.75,0003.47,0002.35
2022-10-23 16:24:00,,0804.4,5.00,0.00,30.8,29.6,00.0,39.6,32.7,10.6,0000.0,0011.90,0003.53,0002.38
2022-10-23 16:25:00,,0804.3,5.00,0.00,30.9,29.6,00.0,39.6,32.7,10.5,0000.0,0012.56,0003.52,0002.39
2022-10-23 16:26:00,,0804.4,5.00,0.00,30.9,29.6,00.0,39.7,32.7,10.6,0000.0,0011.81,0003.49,0002.40
2022-10-23 16:27:00,,0804.4,5.01,0.00,30.9,29.6,00.0,39.7,32.7,10.5,0000.0,0011.23,0003.45,0002.40
2022-10-23 16:28:00,,0804.4,4.99,0.00,30.9,29.6,00.0,39.7,32.7,10.5,0000.0,0011.75,0003.44,0002.37
2022-10-23 16:29:00,,0804.4,5.00,0.00,30.9,29.6,00.0,39.7,32.7,10.4,0000.0,0011.48,0003.40,0002.34
2022-10-23 16:30:00,,0804.4,5.00,0.00,30.9,29.7,00.0,39.7,32.7,10.5,0000.0,0010.76,0003.32,0002.26
2022-10-23 16:31:00,,0804.5,4.99,0.00,30.9,29.7,00.0,39.7,32.8,10.5,0000.0,0009.96,0003.29,0002.20
2022-10-23 16:32:00,,0804.5,4.99,0.00,31.0,29.7,00.0,39.7,32.8,10.6,0000.0,0009.50,0003.29,0002.14
2022-10-23 16:33:00,,0804.6,5.02,0.00,31.0,29.7,00.0,39.8,32.7,10.4,0000.0,0009.44,0003.22,0002.06
2022-10-23 16:34:00,,0804.6,4.99,0.00,31.0,29.7,00.0,39.8,32.7,10.4,0000.0,0008.80,0003.12,0001.98
2022-10-23 16:35:00,,0804.6,4.99,0.00,31.0,29.8,00.0,39.8,32.8,10.4,0000.0,0008.90,0003.05,0001.93
2022-10-23 16:36:00,,0804.6,5.02,0.00,31.0,29.8,00.0,39.8,32.8,10.5,0000.0,0009.72,0003.07,0001.93
2022-10-23 16:37:00,,0804.6,5.00,0.00,31.0,29.8,00.0,39.8,32.8,10.3,0000.0,0010.00,0003.07,0001.90
2022-10-23 16:38:00,,0804.7,4.99,0.00,31.1,29.0,00.0,39.8,32.8,10.4,0000.0,0010.05,0003.02,0001.86
2022-10-23 16:39:00,,0804.7,5.01,0.00,31.0,27.7,00.0,39.8,32.7,10.6,0000.0,0009.83,0002.99,0001.85
2022-10-23 16:40:00,,0804.8,4.99,0.00,31.0,27.4,00.0,39.7,32.6,10.6,0000.0,0010.32,0002.93,0001.82
2022-10-23 16:41:00,,0804.8,5.00,0.00,30.9,27.7,00.0,39.7,32.5,10.4,0000.0,0010.85,0002.95,0001.83
2022-10-23 16:42:00,,0804.7,5.00,0.00,30.8,28.0,00.0,39.7,32.4,10.4,0000.0,0011.34,0002.99,0001.84
2022-10-23 16:43:00,,0804.8,5.00,0.00,30.8,28.3,00.0,39.6,32.4,10.5,0000.0,0011.26,0002.99,0001.83
2022-10-23 16:44:00,,0804.8,5.00,0.00,30.7,28.5,00.0,39.6,32.3,10.5,0000.0,0011.06,0002.95,0001.84
2022-10-23 16:45:00,,0804.8,4.99,0.00,30.7,28.7,00.0,39.6,32.4,10.7,0000.0,0011.09,0002.98,0001.84
2022-10-23 16:46:00,,0804.9,5.00,0.00,30.7,28.8,00.0,39.6,32.4,10.6,0000.0,0010.76,0002.92,0001.84
2022-10-23 16:47:00,,0804.9,4.99,0.00,30.7,29.0,00.0,39.6,32.4,10.6,0000.0,0009.19,0002.84,0001.82
2022-10-23 16:48:00,,0805.0,5.01,0.00,30.7,29.1,00.0,39.6,32.4,10.6,0000.0,0008.78,0002.84,0001.83
2022-10-23 16:49:00,,0805.0,4.99,0.00,30.7,29.2,00.0,39.6,32.4,10.4,0000.0,0008.93,0002.93,0001.88
2022-10-23 16:50:00,,0805.0,5.00,0.00,30.7,29.3,00.0,39.6,32.5,10.3,0000.0,0008.52,0003.06,0001.95
2022-10-23 16:51:00,,0805.0,5.01,0.00,30.8,29.2,00.0,39.6,32.5,10.2,0000.0,0008.09,0003.16,0002.04
2022-10-23 16:52:00,,0805.0,4.99,0.00,30.8,28.3,00.0,39.6,32.5,10.1,0000.0,0008.49,0003.19,0002.09
2022-10-23 16:53:00,,0805.0,5.02,0.00,30.7,27.0,00.0,39.5,32.3,10.1,0000.0,0008.48,0003.21,0002.13
2022-10-23 16:54:00,,0805.1,4.99,0.00,30.6,26.8,00.0,39.4,32.3,10.2,0000.0,0008.30,0003.21,0002.17
2022-10-23 16:55:00,,0805.2,5.01,0.00,30.6,27.1,00.0,39.4,32.1,10.3,0000.0,0009.04,0003.23,0002.19
2022-10-23 16:56:00,,0805.3,4.99,0.00,30.5,27.4,00.0,39.4,32.1,10.4,0000.0,0009.29,0003.28,0002.23
2022-10-23 16:57:00,,0805.2,5.01,0.00,30.4,27.7,00.0,39.4,32.1,10.4,0000.0,0009.43,0003.36,0002.27
2022-10-23 16:58:00,,0805.3,4.99,0.00,30.4,28.0,00.0,39.3,32.0,10.5,0000.0,0009.67,0003.40,0002.31
2022-10-23 16:59:00,,0805.2,5.01,0.00,30.4,28.2,00.0,39.3,32.1,10.4,0000.0,0010.14,0003.42,0002.34
